FW4741 Weather Reports


time (UTC)temp
C
wind
direction
speed
KPH
gust
KPH
rain 1hr
cm
rain 24hr
cm
rain mn
cm
humidity
%
barometer
mb
20260508113604 15 77 3.2 9.7 0.00 0.00 0.00 60 1021.6
20260508113104 15 77 3.2 9.7 0.00 0.00 0.00 61 1021.6
20260508112604 15 77 3.2 9.7 0.00 0.00 0.00 59 1021.5
20260508112104 15 77 3.2 9.7 0.00 0.00 0.00 60 1021.5
20260508111104 15 77 3.2 9.7 0.00 0.00 0.00 61 1021.4
20260508110604 15 77 3.2 9.7 0.00 0.00 0.00 60 1021.4
20260508110104 16 77 3.2 9.7 0.00 0.00 0.00 58 1021.3
20260508105603 16 77 3.2 9.7 0.00 0.00 0.00 57 1021.3
20260508105103 15 77 3.2 9.7 0.00 0.00 0.00 57 1021.2
20260508104104 16 77 3.2 9.7 0.00 0.00 0.00 60 1021.2
20260508103604 16 77 3.2 9.7 0.00 0.00 0.00 58 1021.2
20260508103104 16 77 3.2 9.7 0.00 0.00 0.00 55 1021.1
20260508102603 16 77 3.2 9.7 0.00 0.00 0.00 56 1021.1
20260508101604 16 77 3.2 9.7 0.00 0.00 0.00 57 1021.0
20260508101104 16 77 3.2 9.7 0.00 0.00 0.00 56 1020.9
20260508100604 16 77 3.2 9.7 0.00 0.00 0.00 56 1020.9
20260508100104 16 77 3.2 9.7 0.00 0.00 0.00 56 1020.9
20260508095604 16 77 3.2 9.7 0.00 0.00 0.00 56 1020.9
20260508095104 16 77 3.2 9.7 0.00 0.00 0.00 56 1020.8
20260508094604 16 77 3.2 9.7 0.00 0.00 0.00 56 1020.9
20260508093603 16 77 3.2 9.7 0.00 0.00 0.00 55 1020.8
20260508093104 17 77 3.2 9.7 0.00 0.00 0.00 55 1020.8
20260508090603 17 77 3.2 9.7 0.00 0.00 0.00 53 1021.0
20260508090103 17 77 3.2 9.7 0.00 0.00 0.00 53 1021.1
20260508085603 17 77 3.2 9.7 0.00 0.00 0.00 53 1021.1
20260508085103 17 77 3.2 9.7 0.00 0.00 0.00 53 1021.1
20260508084604 17 77 3.2 9.7 0.00 0.00 0.00 52 1021.2
20260508084103 17 77 3.2 9.7 0.00 0.00 0.00 51 1021.1
20260508083603 17 77 3.2 9.7 0.00 0.00 0.00 51 1021.1
20260508083104 17 77 3.2 9.7 0.00 0.00 0.00 52 1021.2
20260508082603 18 77 3.2 9.7 0.00 0.00 0.00 53 1021.2
20260508082103 18 77 3.2 9.7 0.00 0.00 0.00 52 1021.3
20260508081604 18 77 3.2 9.7 0.00 0.00 0.00 51 1021.2
20260508081104 18 77 3.2 9.7 0.00 0.00 0.00 50 1021.3
20260508080603 18 77 3.2 9.7 0.00 0.00 0.00 50 1021.4
20260508075604 18 77 3.2 9.7 0.00 0.00 0.00 50 1021.4
20260508075103 18 77 3.2 9.7 0.00 0.00 0.00 50 1021.5
20260508074104 18 77 3.2 9.7 0.00 0.00 0.00 50 1021.6
20260508073604 18 77 3.2 9.7 0.00 0.00 0.00 49 1021.6
20260508073103 18 77 3.2 9.7 0.00 0.00 0.00 49 1021.6
20260508072603 18 77 3.2 9.7 0.00 0.00 0.00 49 1021.7
20260508071604 19 77 3.2 9.7 0.00 0.00 0.00 50 1021.7
20260508071103 19 77 3.2 9.7 0.00 0.00 0.00 49 1021.7
20260508070603 19 77 3.2 9.7 0.00 0.00 0.00 48 1021.7
20260508065604 20 77 3.2 9.7 0.00 0.00 0.00 48 1021.7
20260508064604 20 77 3.2 9.7 0.00 0.00 0.00 48 1021.8
20260508063603 20 77 3.2 9.7 0.00 0.00 0.00 47 1021.7
20260508062104 20 77 3.2 9.7 0.00 0.00 0.00 46 1021.8
20260508061603 20 77 3.2 9.7 0.00 0.00 0.00 45 1021.8
20260508061103 20 77 3.2 9.7 0.00 0.00 0.00 45 1021.8
20260508060603 20 77 3.2 9.7 0.00 0.00 0.00 46 1021.8
20260508055604 20 77 3.2 9.7 0.00 0.00 0.00 44 1021.8
20260508055104 20 77 3.2 9.7 0.00 0.00 0.00 44 1021.8
20260508054604 20 77 3.2 9.7 0.00 0.00 0.00 44 1021.8
20260508054103 20 77 3.2 9.7 0.00 0.00 0.00 43 1021.8
20260508053604 20 77 3.2 9.7 0.00 0.00 0.00 42 1021.8
20260508053104 21 77 3.2 9.7 0.00 0.00 0.00 43 1021.8
20260508052604 21 77 3.2 9.7 0.00 0.00 0.00 44 1021.8
20260508052104 21 77 3.2 9.7 0.00 0.00 0.00 42 1021.7
20260508051104 21 77 3.2 9.7 0.00 0.00 0.00 43 1021.7
20260508050604 21 77 3.2 9.7 0.00 0.00 0.00 43 1021.6
20260508050103 21 77 3.2 9.7 0.00 0.00 0.00 44 1021.7
20260508045604 21 77 3.2 9.7 0.00 0.00 0.00 43 1021.6
20260508045104 22 77 3.2 9.7 0.00 0.00 0.00 43 1021.5
20260508044604 22 77 3.2 9.7 0.00 0.00 0.00 42 1021.5
20260508044104 22 77 3.2 9.7 0.00 0.00 0.00 41 1021.4
20260508043603 22 77 3.2 9.7 0.00 0.00 0.00 40 1021.4
20260508043103 22 77 3.2 9.7 0.00 0.00 0.00 40 1021.3
20260508042604 22 77 3.2 9.7 0.00 0.00 0.00 40 1021.2
20260508042104 22 77 3.2 9.7 0.00 0.00 0.00 39 1021.2
20260508041603 22 77 3.2 9.7 0.00 0.00 0.00 40 1021.1
20260508041103 22 77 3.2 9.7 0.00 0.00 0.00 40 1021.1
20260508040603 22 77 3.2 9.7 0.00 0.00 0.00 41 1021.1
20260508035604 22 77 3.2 9.7 0.00 0.00 0.00 41 1021.0
20260508035103 22 77 3.2 9.7 0.00 0.00 0.00 41 1020.9
20260508034604 22 77 3.2 9.7 0.00 0.00 0.00 41 1020.9
20260508034104 22 77 3.2 9.7 0.00 0.00 0.00 40 1020.8
20260508033604 22 77 3.2 9.7 0.00 0.00 0.00 39 1020.8
20260508033103 22 77 3.2 9.7 0.00 0.00 0.00 39 1020.8
20260508032604 22 77 3.2 9.7 0.00 0.00 0.00 39 1020.7
20260508032103 22 77 3.2 9.7 0.00 0.00 0.00 39 1020.7
20260508031604 22 77 3.2 9.7 0.00 0.00 0.00 39 1020.7
20260508031104 22 77 3.2 9.7 0.00 0.00 0.00 39 1020.7
20260508030604 22 77 3.2 9.7 0.00 0.00 0.00 39 1020.6
20260508030103 22 77 3.2 9.7 0.00 0.00 0.00 38 1020.6
20260508025603 22 77 3.2 9.7 0.00 0.00 0.00 38 1020.5
20260508025103 23 77 3.2 9.7 0.00 0.00 0.00 38 1020.4
20260508024604 23 77 3.2 9.7 0.00 0.00 0.00 37 1020.4
20260508024104 23 77 3.2 9.7 0.00 0.00 0.00 37 1020.4
20260508023604 23 77 3.2 9.7 0.00 0.00 0.00 37 1020.4
20260508023103 23 77 3.2 9.7 0.00 0.00 0.00 36 1020.3
20260508022604 23 77 3.2 9.7 0.00 0.00 0.00 36 1020.3
20260508022104 24 77 3.2 9.7 0.00 0.00 0.00 36 1020.2
20260508021104 24 77 3.2 9.7 0.00 0.00 0.00 36 1020.0
20260508020604 25 77 3.2 9.7 0.00 0.00 0.00 35 1020.0
20260508020104 25 77 3.2 9.7 0.00 0.00 0.00 34 1019.9
20260508015604 25 77 3.2 9.7 0.00 0.00 0.00 34 1019.8
20260508015104 26 77 3.2 9.7 0.00 0.00 0.00 33 1019.7
20260508014604 26 77 3.2 9.7 0.00 0.00 0.00 32 1019.7
20260508013604 26 77 3.2 9.7 0.00 0.00 0.00 32 1019.6
20260508013104 26 77 3.2 9.7 0.00 0.00 0.00 32 1019.5
20260508012604 26 77 3.2 9.7 0.00 0.00 0.00 32 1019.5
20260508011604 27 77 3.2 9.7 0.00 0.00 0.00 31 1019.4
20260508011103 27 77 3.2 9.7 0.00 0.00 0.00 30 1019.4
20260508010604 27 77 3.2 9.7 0.00 0.00 0.00 30 1019.2
20260508010105 27 77 3.2 9.7 0.00 0.00 0.00 29 1019.2
20260508005603 27 77 3.2 9.7 0.00 0.00 0.00 29 1019.1
20260508005104 28 77 3.2 9.7 0.00 0.00 0.00 29 1019.1
20260508004604 28 77 3.2 9.7 0.00 0.00 0.00 28 1019.1
20260508004104 28 77 3.2 9.7 0.00 0.00 0.00 28 1019.0
20260508003603 28 77 3.2 9.7 0.00 0.00 0.00 28 1019.0
20260508003104 28 77 3.2 9.7 0.00 0.00 0.00 28 1018.9
20260508002104 29 77 3.2 9.7 0.00 0.00 0.00 28 1018.8
20260508001604 29 77 3.2 9.7 0.00 0.00 0.00 27 1018.8
20260508001104 29 77 3.2 9.7 0.00 0.00 0.00 27 1018.7
20260508000604 29 77 3.2 9.7 0.00 0.00 0.00 27 1018.6
20260508000103 30 77 3.2 9.7 0.00 0.00 0.00 27 1018.6
20260507235604 30 77 3.2 9.7 0.00 0.00 0.00 27 1018.6
20260507235103 30 77 3.2 9.7 0.00 0.00 0.00 27 1018.5
20260507234604 30 77 3.2 9.7 0.00 0.00 0.00 27 1018.5
20260507234104 30 77 3.2 9.7 0.00 0.00 0.00 27 1018.5
20260507233604 30 77 3.2 9.7 0.00 0.00 0.00 27 1018.5
20260507233104 30 77 3.2 9.7 0.00 0.00 0.00 27 1018.5
20260507232604 30 77 3.2 9.7 0.00 0.00 0.00 27 1018.5
20260507232104 30 77 3.2 9.7 0.00 0.00 0.00 27 1018.4
20260507231604 30 77 3.2 9.7 0.00 0.00 0.00 27 1018.4
20260507231104 30 77 3.2 9.7 0.00 0.00 0.00 27 1018.5
20260507230603 30 77 3.2 9.7 0.00 0.00 0.00 27 1018.4
20260507225604 30 77 3.2 9.7 0.00 0.00 0.00 27 1018.4
20260507224604 30 77 3.2 9.7 0.00 0.00 0.00 27 1018.5
20260507224104 30 77 3.2 9.7 0.00 0.00 0.00 27 1018.5
20260507223104 30 77 3.2 9.7 0.00 0.00 0.00 27 1018.6
20260507222603 30 77 3.2 9.7 0.00 0.00 0.00 27 1018.6
20260507222104 30 77 3.2 9.7 0.00 0.00 0.00 27 1018.6
20260507221103 30 77 3.2 9.7 0.00 0.00 0.00 27 1018.6
20260507220604 30 77 3.2 9.7 0.00 0.00 0.00 27 1018.7
20260507220104 30 77 3.2 9.7 0.00 0.00 0.00 27 1018.7
20260507215604 30 77 3.2 9.7 0.00 0.00 0.00 27 1018.8
20260507215104 30 77 3.2 9.7 0.00 0.00 0.00 28 1018.8
20260507214604 30 77 3.2 9.7 0.00 0.00 0.00 28 1018.8
20260507214103 30 77 3.2 9.7 0.00 0.00 0.00 29 1018.9
20260507213604 30 77 3.2 9.7 0.00 0.00 0.00 29 1018.9
20260507213104 30 77 3.2 9.7 0.00 0.00 0.00 29 1018.9
20260507212604 30 77 3.2 9.7 0.00 0.00 0.00 28 1019.0
20260507211604 30 77 3.2 9.7 0.00 0.00 0.00 29 1019.1
20260507211104 30 77 3.2 9.7 0.00 0.00 0.00 29 1019.2
20260507210603 30 77 3.2 9.7 0.00 0.00 0.00 29 1019.2
20260507210104 30 77 3.2 9.7 0.00 0.00 0.00 29 1019.4
20260507205604 30 77 3.2 9.7 0.00 0.00 0.00 29 1019.4
20260507205104 30 77 3.2 9.7 0.00 0.00 0.00 29 1019.5
20260507204604 30 77 3.2 9.7 0.00 0.00 0.00 29 1019.5
20260507204103 29 77 3.2 9.7 0.00 0.00 0.00 30 1019.5
20260507203603 29 77 3.2 9.7 0.00 0.00 0.00 29 1019.6
20260507203104 29 77 3.2 9.7 0.00 0.00 0.00 29 1019.7
20260507202604 29 77 3.2 9.7 0.00 0.00 0.00 30 1019.7
20260507202104 30 77 3.2 9.7 0.00 0.00 0.00 29 1019.8
20260507201603 29 77 3.2 9.7 0.00 0.00 0.00 30 1019.8
20260507200604 29 77 3.2 9.7 0.00 0.00 0.00 30 1019.9
20260507200104 29 77 3.2 9.7 0.00 0.00 0.00 30 1020.0
20260507195104 29 77 3.2 9.7 0.00 0.00 0.00 29 1020.1
20260507194603 29 77 3.2 9.7 0.00 0.00 0.00 30 1020.2
20260507194104 29 77 3.2 9.7 0.00 0.00 0.00 30 1020.3
20260507193604 29 77 3.2 9.7 0.00 0.00 0.00 31 1020.4
20260507193104 29 77 3.2 9.7 0.00 0.00 0.00 30 1020.4
20260507192604 28 77 3.2 9.7 0.00 0.00 0.00 31 1020.4
20260507191604 28 77 3.2 9.7 0.00 0.00 0.00 30 1020.5
20260507191104 28 77 3.2 9.7 0.00 0.00 0.00 31 1020.6
20260507190603 28 77 3.2 9.7 0.00 0.00 0.00 31 1020.7
20260507190104 28 77 3.2 9.7 0.00 0.00 0.00 31 1020.8
20260507185604 28 77 3.2 9.7 0.00 0.00 0.00 32 1020.7
20260507185103 28 77 3.2 9.7 0.00 0.00 0.00 32 1021.0
20260507184604 28 77 3.2 9.7 0.00 0.00 0.00 32 1021.0
20260507184104 27 77 3.2 9.7 0.00 0.00 0.00 32 1021.1
20260507183603 27 77 3.2 9.7 0.00 0.00 0.00 33 1021.1
20260507183103 27 77 3.2 9.7 0.00 0.00 0.00 33 1021.2
20260507182604 28 77 3.2 9.7 0.00 0.00 0.00 33 1021.2
20260507182104 27 77 3.2 9.7 0.00 0.00 0.00 33 1021.2
20260507181604 27 77 3.2 9.7 0.00 0.00 0.00 33 1021.2
20260507181104 27 77 3.2 9.7 0.00 0.00 0.00 34 1021.3
20260507180604 27 77 3.2 9.7 0.00 0.00 0.00 34 1021.4
20260507180104 27 77 3.2 9.7 0.00 0.00 0.00 33 1021.4
20260507175603 27 77 3.2 9.7 0.00 0.00 0.00 34 1021.5
20260507174604 27 77 3.2 9.7 0.00 0.00 0.00 34 1021.6
20260507173604 26 77 3.2 9.7 0.00 0.00 0.00 36 1021.6
20260507173104 26 77 3.2 9.7 0.00 0.00 0.00 35 1021.7
20260507172604 26 77 3.2 9.7 0.00 0.00 0.00 36 1021.7
20260507172104 26 77 3.2 9.7 0.00 0.00 0.00 36 1021.8
20260507171104 26 77 3.2 9.7 0.00 0.00 0.00 37 1021.8
20260507170604 26 77 3.2 9.7 0.00 0.00 0.00 37 1021.9
20260507170104 26 77 3.2 9.7 0.00 0.00 0.00 38 1021.9
20260507165104 26 77 3.2 9.7 0.00 0.00 0.00 39 1022.0
20260507164104 25 77 3.2 9.7 0.00 0.00 0.00 40 1022.1
20260507163105 25 77 3.2 9.7 0.00 0.00 0.00 41 1022.0
20260507162604 25 77 3.2 9.7 0.00 0.00 0.00 41 1022.0
20260507162104 25 77 3.2 9.7 0.00 0.00 0.00 42 1022.0
20260507161603 25 77 3.2 9.7 0.00 0.00 0.00 42 1022.0
20260507161104 25 77 3.2 9.7 0.00 0.00 0.00 42 1022.1
20260507160604 25 77 3.2 9.7 0.00 0.00 0.00 42 1022.1
20260507160104 26 77 3.2 9.7 0.00 0.00 0.00 43 1022.2
20260507155604 26 77 3.2 9.7 0.00 0.00 0.00 39 1022.3
20260507155103 26 77 3.2 9.7 0.00 0.00 0.00 42 1022.3
20260507154104 25 77 3.2 9.7 0.00 0.00 0.00 43 1022.4
20260507153104 24 77 3.2 9.7 0.00 0.00 0.00 45 1022.5
20260507152604 23 77 3.2 9.7 0.00 0.00 0.00 45 1022.5
20260507152104 23 77 3.2 9.7 0.00 0.00 0.00 46 1022.5
20260507151604 23 77 3.2 9.7 0.00 0.00 0.00 47 1022.6
20260507151104 22 77 3.2 9.7 0.00 0.00 0.00 48 1022.6
20260507150104 22 77 3.2 9.7 0.00 0.00 0.00 50 1022.6
20260507145604 21 77 3.2 9.7 0.00 0.00 0.00 51 1022.6
20260507145104 21 77 3.2 9.7 0.00 0.00 0.00 52 1022.7
20260507144604 21 77 3.2 9.7 0.00 0.00 0.00 53 1022.7
20260507144104 20 77 3.2 9.7 0.00 0.00 0.00 53 1022.7
20260507143103 20 77 3.2 9.7 0.00 0.00 0.00 54 1022.8
20260507142104 19 77 3.2 9.7 0.00 0.00 0.00 56 1022.7
20260507141103 18 77 3.2 9.7 0.00 0.00 0.00 58 1022.7
20260507140604 18 77 3.2 9.7 0.00 0.00 0.00 59 1022.7
20260507140104 18 77 3.2 9.7 0.00 0.00 0.00 59 1022.8
20260507134605 18 77 3.2 9.7 0.00 0.00 0.00 61 1022.7
20260507134104 17 77 3.2 9.7 0.00 0.00 0.00 61 1022.7
20260507133604 17 77 3.2 9.7 0.00 0.00 0.00 63 1022.7
20260507133104 16 77 3.2 9.7 0.00 0.00 0.00 62 1022.7
20260507132604 16 77 3.2 9.7 0.00 0.00 0.00 63 1022.6
20260507132104 16 77 3.2 9.7 0.00 0.00 0.00 64 1022.6
20260507131604 16 77 3.2 9.7 0.00 0.00 0.00 64 1022.6
20260507131105 16 77 3.2 9.7 0.00 0.00 0.00 65 1022.6
20260507130603 15 77 3.2 9.7 0.00 0.00 0.00 66 1022.6
20260507130103 15 77 3.2 9.7 0.00 0.00 0.00 67 1022.6
20260507125604 15 77 3.2 9.7 0.00 0.00 0.00 66 1022.6
20260507125104 15 77 3.2 9.7 0.00 0.00 0.00 66 1022.5
20260507124604 15 77 3.2 9.7 0.00 0.00 0.00 66 1022.5
20260507124104 15 77 3.2 9.7 0.00 0.00 0.00 67 1022.6
20260507123104 15 77 3.2 9.7 0.00 0.00 0.00 67 1022.5
20260507122604 15 77 3.2 9.7 0.00 0.00 0.00 66 1022.5
20260507122104 15 77 3.2 9.7 0.00 0.00 0.00 66 1022.4
20260507121604 15 77 3.2 9.7 0.00 0.00 0.00 66 1022.4
20260507121104 15 77 3.2 9.7 0.00 0.00 0.00 67 1022.4
20260507120603 15 77 3.2 9.7 0.00 0.00 0.00 66 1022.4
20260507120104 16 77 3.2 9.7 0.00 0.00 0.00 66 1022.4
20260507115604 16 77 3.2 9.7 0.00 0.00 0.00 65 1022.3
20260507115104 16 77 3.2 9.7 0.00 0.00 0.00 64 1022.3
20260507114604 16 77 3.2 9.7 0.00 0.00 0.00 64 1022.3
20260507114104 16 77 3.2 9.7 0.00 0.00 0.00 63 1022.2